カタログに戻る

DMSP 5D-2 F14

USA 131

運用中気象SSO
NORAD 24753·PAYLOAD·🇺🇸 United States

打ち上げ Apr 4, 1997 から Vandenberg Space Force Base

Loading…

次のパス (今後24時間)

TLE

最新Source: Space-Track

元期: Sep 14, 2026, 14:06 UTC

1 24753U 97012A   26257.58780992  .00000095  00000-0  69089-4 0  9990
2 24753  98.7493 304.7362 0008598 187.9875 172.1164 14.16795023520954

AllMySatでDMSP 5D-2 F14をリアルタイム追跡

Download on the App Store